ORBCOMM FM07 [-] (25119 NORAD) Tracking and Keplerian Element Data

This shows tracking and keplerian element data for the satellite.

Feedback or suggestion? Click here.




ElementValue
Catalog25119
NameORBCOMM FM07 [-]
Epoch Orbit34606
Epoch Day238.53255624
Epoch Year2023
RAAN287.8962
Inclination45.015
Eccentricity0.0002638
Argument of Perigee177.4355
Mean Anonmoly182.6509
Mean Motion14.41170756
Decay Rate1.302E-05
L11 25119U 97084H 23238.53255624 .00001302 00000+0 44392-3 0 9996
L22 25119 45.0150 287.8962 0002638 177.4355 182.6509 14.41170756346064



Live tracking and technical data element details for ORBCOMM FM07 [-] (NORAD 25119). ORBCOMM FM07 [-] can be tracked NOW for your location showing map with azimuth and elevation plus other details from your city location.







IsCatalogInMostPopularTable: catalog: 25119, numindb: 484
Update: records affected: 1



GetName: 25119 ORBCOMM FM07 [-]

Hit Count: updated at: Thu, 22 May 2025 04:27:37 GMT